TimeCST,TemperatureF,Dew PointF,Humidity,Sea Level PressureIn,VisibilityMPH,Wind Direction,Wind SpeedMPH,Gust SpeedMPH,PrecipitationIn,Events,Conditions,WindDirDegrees,DateUTC
12:15 AM,30.6,23.9,76,30.07,10.0,West,8.1,-,N/A,,Mostly Cloudy,260,2012-12-11 06:15:00
12:55 AM,29.3,23.0,77,30.07,10.0,WSW,6.9,-,N/A,,Scattered Clouds,250,2012-12-11 06:55:00
1:15 AM,28.0,22.5,80,30.08,10.0,WSW,5.8,-,N/A,,Clear,250,2012-12-11 07:15:00
1:35 AM,27.3,22.1,81,30.08,10.0,West,5.8,-,N/A,,Clear,260,2012-12-11 07:35:00
1:55 AM,27.1,22.1,81,30.08,10.0,West,5.8,-,N/A,,Clear,260,2012-12-11 07:55:00
2:35 AM,26.6,21.7,82,30.09,10.0,WSW,6.9,-,N/A,,Clear,250,2012-12-11 08:35:00
2:55 AM,26.4,21.4,81,30.09,10.0,WSW,5.8,-,N/A,,Clear,240,2012-12-11 08:55:00
3:15 AM,27.3,21.9,80,30.09,10.0,SW,4.6,-,N/A,,Clear,220,2012-12-11 09:15:00
3:35 AM,26.1,21.4,82,30.09,10.0,SSW,4.6,-,N/A,,Clear,200,2012-12-11 09:35:00
3:55 AM,27.3,23.0,84,30.09,10.0,SSW,3.5,-,N/A,,Clear,210,2012-12-11 09:55:00
4:15 AM,26.6,21.9,82,30.09,10.0,South,3.5,-,N/A,,Clear,180,2012-12-11 10:15:00
4:35 AM,26.2,21.6,82,30.09,10.0,Calm,Calm,-,N/A,,Clear,0,2012-12-11 10:35:00
4:55 AM,25.9,21.2,82,30.09,10.0,South,3.5,-,N/A,,Clear,180,2012-12-11 10:55:00
5:15 AM,25.3,21.2,84,30.09,10.0,South,3.5,-,N/A,,Clear,190,2012-12-11 11:15:00
5:35 AM,23.9,20.3,86,30.10,10.0,South,3.5,-,N/A,,Clear,180,2012-12-11 11:35:00
5:55 AM,25.7,22.1,86,30.10,10.0,Calm,Calm,-,N/A,,Clear,0,2012-12-11 11:55:00
6:50 AM,24.8,21.2,86,30.10,10.0,Calm,Calm,-,N/A,,Clear,0,2012-12-11 12:50:00
7:50 AM,24.8,21.2,86,30.11,10.0,SSE,3.5,-,N/A,,Clear,160,2012-12-11 13:50:00
8:50 AM,30.2,24.8,80,30.12,10.0,South,8.1,-,N/A,,Clear,180,2012-12-11 14:50:00
9:50 AM,33.8,24.8,70,30.14,10.0,South,10.4,-,N/A,,Clear,170,2012-12-11 15:50:00
10:45 AM,35.6,23.0,60,30.14,10.0,South,17.3,-,N/A,,Clear,180,2012-12-11 16:45:00
11:45 AM,37.4,21.2,52,30.12,10.0,South,13.8,-,N/A,,Clear,190,2012-12-11 17:45:00
1:50 PM,42.8,15.8,34,30.10,10.0,SW,9.2,-,N/A,,Clear,230,2012-12-11 19:50:00
1:55 PM,41.0,15.8,36,30.11,10.0,SSW,13.8,-,N/A,,Clear,200,2012-12-11 19:55:00
2:50 PM,42.8,14.0,31,30.11,10.0,SSW,11.5,-,N/A,,Clear,210,2012-12-11 20:50:00
3:50 PM,41.0,17.6,39,30.11,10.0,SW,9.2,-,N/A,,Clear,220,2012-12-11 21:50:00
8:55 PM,30.2,21.2,69,30.18,10.0,Calm,Calm,-,N/A,,Clear,0,2012-12-12 02:55:00
9:35 PM,32.0,22.1,67,30.19,10.0,SSE,3.5,-,N/A,,Clear,160,2012-12-12 03:35:00
9:55 PM,32.9,20.3,60,30.19,10.0,SSE,3.5,-,N/A,,Clear,150,2012-12-12 03:55:00
10:15 PM,32.2,21.0,63,30.19,10.0,SSE,3.5,-,N/A,,Clear,160,2012-12-12 04:15:00
10:35 PM,30.6,21.2,68,30.21,10.0,SSE,3.5,-,N/A,,Clear,150,2012-12-12 04:35:00
10:55 PM,32.0,20.8,63,30.21,10.0,Calm,Calm,-,N/A,,Clear,0,2012-12-12 04:55:00
11:15 PM,32.2,21.7,65,30.22,10.0,SSE,3.5,-,N/A,,Clear,160,2012-12-12 05:15:00
11:35 PM,30.9,20.8,66,30.22,10.0,South,3.5,-,N/A,,Clear,170,2012-12-12 05:35:00
11:55 PM,31.1,22.8,71,30.23,10.0,Calm,Calm,-,N/A,,Clear,0,2012-12-12 05:55:00